Weather History for Nantucket, MA

Change the Weather History Date:

Sunday, March 17, 2013

  Actual Average Record
Temperature  
Mean Temperature 34 °F -  
Max Temperature 39 °F 42 °F 59 °F (2003)
Min Temperature 28 °F 28 °F 16 °F (1966)
Degree Days  
Heating Degree Days 32    
Moisture  
Dew Point 20 °F    
Average Humidity 57    
Maximum Humidity 85    
Minimum Humidity 39    
Precipitation  
Precipitation 0.00 in - - ()
Sea Level Pressure  
Sea Level Pressure 30.03 in    
Wind  
Wind Speed 7 mph (NW)    
Max Wind Speed 16 mph    
Max Gust Speed 23 mph    
Visibility 10 miles    
Events      
Averages and records for this station are not official NWS values.
T = Trace of Precipitation, MM = Missing Value Source: NWS Daily Summary

Daily Weather History Graph

Daily Weather History Graph

Search for Another Location

Airport:

Trip Planner

Search our weather history database for the weather conditions in past years. The results will help you decide how hot, cold, wet, or windy it might be!

Date:

Astronomy

Mar. 17, 2013 Rise Set
Actual Time 6:48 AM EDT 6:49 PM EDT
Civil Twilight 6:20 AM EDT 7:16 PM EDT
Nautical Twilight 5:48 AM EDT 7:49 PM EDT
Astronomical Twilight 5:16 AM EDT 8:21 PM EDT
Moon 9:55 AM EDT (3/17) No Moon Set
Length of Visible Light 12h 56m
Length of Day
12h 01m
Waxing Crescent, 31% of the Moon is Illuminated
Mar 17
Waxing Crescent
Mar 19
First Quarter
Mar 27
Full
Apr 3
Last Quarter
Apr 10
New

Hourly Weather History & Observations

Time (EDT) Temp. Windchill Dew Point Humidity Pressure Visibility Wind Dir Wind Speed Gust Speed Precip Events Conditions
12:53 AM 33.1 °F 30.0 °F 24.1 °F 70% 29.87 in 10.0 mi SW 3.5 mph - N/A   Overcast
1:53 AM 33.1 °F 30.0 °F 26.1 °F 75% 29.89 in 10.0 mi WNW 3.5 mph - N/A   Overcast
2:53 AM 33.1 °F 28.7 °F 26.1 °F 75% 29.88 in 10.0 mi WNW 4.6 mph - N/A   Mostly Cloudy
3:53 AM 30.0 °F - 24.1 °F 79% 29.88 in 10.0 mi Calm Calm - N/A   Clear
4:53 AM 28.9 °F 25.2 °F 25.0 °F 85% 29.89 in 10.0 mi West 3.5 mph - N/A   Clear
5:53 AM 32.0 °F 26.4 °F 25.0 °F 75% 29.92 in 10.0 mi WNW 5.8 mph - N/A   Clear
6:53 AM 30.0 °F 25.2 °F 21.9 °F 72% 29.94 in 10.0 mi West 4.6 mph - N/A   Clear
7:53 AM 30.9 °F 26.2 °F 24.1 °F 76% 29.96 in 10.0 mi West 4.6 mph - N/A   Clear
8:53 AM 37.9 °F 32.1 °F 28.0 °F 68% 29.97 in 10.0 mi West 8.1 mph - N/A   Clear
9:53 AM 39.0 °F 31.4 °F 27.0 °F 62% 29.99 in 10.0 mi NW 12.7 mph - N/A   Clear
10:53 AM 39.0 °F 31.0 °F 23.0 °F 53% 30.02 in 10.0 mi NW 13.8 mph - N/A   Clear
11:53 AM 37.9 °F 29.2 °F 19.0 °F 47% 30.02 in 10.0 mi NW 15.0 mph - N/A   Clear
12:53 PM 37.9 °F 28.9 °F 19.0 °F 47% 30.01 in 10.0 mi NW 16.1 mph 23.0 mph N/A   Clear
1:53 PM 37.9 °F 30.5 °F 18.0 °F 45% 30.01 in 10.0 mi NNW 11.5 mph - N/A   Clear
2:53 PM 39.0 °F 31.8 °F 18.0 °F 43% 30.02 in 10.0 mi NW 11.5 mph - N/A   Clear
3:53 PM 37.9 °F 29.2 °F 18.0 °F 45% 30.06 in 10.0 mi North 15.0 mph - N/A   Partly Cloudy
4:53 PM 37.0 °F 28.1 °F 16.0 °F 42% 30.07 in 10.0 mi North 15.0 mph - N/A   Clear
5:53 PM 36.0 °F 27.5 °F 12.9 °F 39% 30.10 in 10.0 mi North 12.7 mph - N/A   Clear
6:53 PM 34.0 °F 26.6 °F 12.9 °F 42% 30.14 in 10.0 mi North 9.2 mph - N/A   Clear
7:53 PM 33.1 °F 25.5 °F 12.9 °F 43% 30.17 in 10.0 mi North 9.2 mph - N/A   Clear
8:53 PM 30.0 °F 24.1 °F 14.0 °F 51% 30.21 in 10.0 mi NNE 5.8 mph - N/A   Clear
9:53 PM 30.9 °F - 14.0 °F 50% 30.23 in 10.0 mi Calm Calm - N/A   Clear
10:53 PM 34.0 °F 26.6 °F 14.0 °F 44% 30.25 in 10.0 mi NNW 9.2 mph - N/A   Clear
11:53 PM 33.1 °F 23.9 °F 14.0 °F 46% 30.28 in 10.0 mi North 12.7 mph - N/A   Clear